clima

HORA PREDICCIÓN TEMPERATURA VIENTO HUMEDAD
2019-10-15 01:00:00 Nublado 11 5.6 0.58
2019-10-15 02:00:00 Nublado 10 5.63 0.59
2019-10-15 03:00:00 Nublado 10 5.81 0.61
2019-10-15 04:00:00 Nublado 9 6.25 0.67
2019-10-15 05:00:00 Nublado 9 6.8 0.73
2019-10-15 06:00:00 Nublado 9 7.03 0.78
2019-10-15 07:00:00 Nublado 9 6.59 0.79
2019-10-15 08:00:00 Nublado 9 5.83 0.78
2019-10-15 09:00:00 Nublado 10 5.42 0.76
2019-10-15 10:00:00 Nublado 12 5.75 0.73
2019-10-15 11:00:00 Nublado 13 6.44 0.68
2019-10-15 12:00:00 Nublado 14 6.9 0.63
2019-10-15 13:00:00 Nublado 16 6.84 0.59
2019-10-15 14:00:00 Mayormente nublado 17 6.53 0.57
2019-10-15 15:00:00 Mayormente nublado 18 6.18 0.54
2019-10-15 16:00:00 Mayormente nublado 18 5.75 0.54
2019-10-15 17:00:00 Mayormente nublado 18 5.26 0.56
2019-10-15 18:00:00 Mayormente nublado 17 4.95 0.6
2019-10-15 19:00:00 Mayormente nublado 16 5.05 0.67
2019-10-15 20:00:00 Mayormente nublado 14 5.35 0.76
2019-10-15 21:00:00 Mayormente nublado 12 5.44 0.83
2019-10-15 22:00:00 Mayormente nublado 12 5.03 0.87
2019-10-15 23:00:00 Mayormente nublado 11 4.41 0.9

Mesón de informaciones

(56 65) 229 4161

Horario

24 horas del día.

Edificio Terminal de pasajeros,

Aeropuerto El Tepual Puerto Montt

Región de los Lagos, Chile.